Terug naar catalogus

ONEWEB-0442

ActiefCommunicatiePO
NORAD 51636·PAYLOAD·🇬🇧 United Kingdom

Gelanceerd Feb 10, 2022 vanaf Guiana Space Centre

Loading…

Volgende Passages (komende 24 uur)

TLE

VersSource: CelesTrak SupGP

Epoch: Sep 14, 2026, 16:08 UTC

1 51636C 22012Q   26257.67238840  .00002535  00000+0  65371-2 0  2573
2 51636  87.9200 348.1074 0002122 118.0828 312.9669 13.17646010    17

Volg ONEWEB-0442 in realtime met AllMySat

Download on the App Store